Location: Unspecified
(0.0000°N, 0.0000°E)
Time: 15:55:49
(UTC+00:00)

Envisat - Visible Passes

Search period start: 30 November 2021 00:00
Search period end: 10 December 2021 00:00
Orbit: 764 x 766 km, 98.2° (Epoch: 29 November)

Date Brightness Start Highest point End Pass type
(mag) Time Alt. Az. Time Alt. Az. Time Alt. Az.
30 Nov 3.1 04:55:12 10° N 05:00:07 54° WNW 05:05:05 10° SSW visible
01 Dec 3.8 04:18:28 10° NNE 04:23:22 52° ESE 04:28:18 10° S visible
02 Dec 5.6 03:43:13 10° ENE 03:46:38 18° ESE 03:50:03 10° SE visible
02 Dec 3.9 05:21:13 10° NNW 05:25:22 26° WNW 05:29:32 10° SW visible
03 Dec 2.9 04:43:33 10° N 04:48:36 75° WNW 04:53:41 10° SSW visible
04 Dec 4.5 04:07:11 10° NE 04:11:51 37° ESE 04:16:31 10° S visible
05 Dec 6.0 03:32:49 10° ENE 03:35:07 13° ESE 03:37:26 10° SE visible
05 Dec 3.5 05:09:15 10° NNW 05:13:50 35° WNW 05:18:27 10° SW visible
06 Dec 3.1 04:32:01 10° NNE 04:37:05 80° ESE 04:42:10 10° S visible
07 Dec 5.0 03:56:04 10° NE 04:00:20 27° ESE 04:04:35 10° SSE visible
08 Dec 3.2 04:57:26 10° N 05:02:19 49° WNW 05:07:12 10° SSW visible
09 Dec 3.6 04:20:35 10° NNE 04:25:33 57° ESE 04:30:32 10° S visible
